www.pogodaiklimat.ru

Погода и климат >> Архив погоды >> Бразилия >> Амапа >> Сантана


ПОГОДА в Сантане

  • Прогноз погоды в Сантане
  • Монитор погоды в Сантане

АРХИВ ПОГОДЫ в Сантане

Время (UTC), дата Ветер
(напр.,м/с)
 
Видим.   Явления Облачность Т
(С)
Тd
(С)
f
(%)
Тe
(С)
Тes
(С)
Комфортность P
(гПа)
Po
(гПа)
Тmin
(С)
Tmax
(С)
R
(мм)
R24
(мм)
S
(см)
07 11.02 СВ 2
{4}
н/о н/о +27.7 +18.9 59 +33 +33 очень
душно
1009.1 1008.0
08 11.02 СВ 2
{4}
н/о н/о +27.8 +17.9 55 +32 +32 душно 1009.3 1008.2
09 11.02 В 2
{4}
н/о н/о +27.9 +18.8 58 +33 +33 очень
душно
1009.7 1008.6
10 11.02 В 1
{4}
н/о н/о +28.1 +22.1 70 +37 +37 очень
душно
1010.4 1009.3
11 11.02 В 1
{6}
н/о н/о +27.4 +23 +23 комфорт 1011.5 1010.4
12 11.02 В 2
{4}
н/о н/о +29.8 +13.4 37 +31 +31 жарко 1011.9 1010.8
13 11.02 В 2
{5}
н/о н/о +29.4 -4.2 11 +26 +26 жарко 1011.9 1010.8
14 11.02 В 3
{6}
н/о н/о +29.0 +7.1 25 +28 +28 жарко 1011.7 1010.6
15 11.02 В 2
{6}
н/о н/о +30.4 -19.6 3 +26 +26 жарко 1010.8 1009.7
16 11.02 В 2
{5}
н/о н/о +31.1 -19.2 3 +26 +26 жарко 1010.2 1009.1
17 11.02 В 2
{5}
н/о н/о +31.0 -19.3 3 +26 +26 жарко 1009.1 1008.0
18 11.02 В 2
{5}
н/о н/о +30.8 -19.4 3 +26 +26 жарко 1008.2 1007.1
19 11.02 В 2
{5}
н/о н/о +30.5 -19.6 3 +26 +26 жарко 1008.0 1006.9
20 11.02 СВ 2
{5}
н/о н/о +29.1 -20.5 3 +25 +25 комфорт 1008.1 1007.0
21 11.02 СВ 2
{4}
н/о н/о +28.7 -20.8 3 +24 +24 комфорт 1008.5 1007.4
22 11.02 СВ 2
{5}
н/о н/о +28.5 -20.9 3 +24 +24 комфорт 1008.8 1007.7
23 11.02 СВ 2
{4}
н/о н/о +28.5 -14.7 5 +24 +24 комфорт 1009.7 1008.6
00 12.02 СВ 2
{4}
н/о н/о +28.5 -1.5 14 +26 +26 жарко 1010.3 1009.2
01 12.02 СВ 2
{4}
н/о н/о +28.2 +19.8 60 +34 +34 очень
душно
1010.9 1009.8
02 12.02 СВ 2
{4}
н/о н/о +28.1 +22.9 73 +37 +37 очень
душно
1010.7 1009.6
03 12.02 СВ 2
{4}
н/о н/о +28.2 +17.9 54 +33 +33 очень
душно
1010.6 1009.5
04 12.02 СВ 2
{5}
н/о н/о +27.9 +22.1 71 +36 +36 очень
душно
1009.9 1008.8
05 12.02 СВ 1
{4}
н/о н/о +28.0 +25.6 87 +41 +41 опасность
перегрева
1009.7 1008.6
06 12.02 СВ 2
{4}
н/о н/о +28.0 +24.8 83 +40 +40 очень
душно
1009.6 1008.5
07 12.02 СВ 2
{4}
н/о н/о +27.8 +24.4 82 +39 +39 очень
душно
1009.6 1008.5
08 12.02 СВ 2
{4}
н/о н/о +27.6 +25.1 86 +40 +40 очень
душно
1009.5 1008.4
09 12.02 СВ 2
{4}
н/о н/о +27.7 +26.1 91 +42 +42 опасность
перегрева
1009.7 1008.6
10 12.02 СВ 2
{5}
н/о н/о +28.6 +19.2 57 +34 +34 очень
душно
1010.5 1009.4
11 12.02 СВ 2
{4}
н/о н/о +29.6 -3.4 11 +26 +26 жарко 1011.2 1010.1
12 12.02 СВ 2
{5}
н/о н/о +30.0 -17.0 4 +25 +25 комфорт 1011.9 1010.8
13 12.02 СВ 2
{4}
н/о н/о +30.6 -19.5 3 +26 +26 жарко 1012.2 1011.1
14 12.02 СВ 2
{4}
н/о н/о +31.3 -19.0 3 +27 +27 жарко 1011.9 1010.8
15 12.02 СВ 3
{5}
н/о н/о +29.7 -20.1 3 +25 +25 комфорт 1011.5 1010.4
16 12.02 СВ 2
{5}
н/о н/о +31.0 -19.2 3 +26 +26 жарко 1010.7 1009.6
17 12.02 С 2
{5}
н/о н/о +30.4 -19.6 3 +26 +26 жарко 1009.4 1008.3
18 12.02 СВ 2
{5}
н/о н/о +29.0 -20.6 3 +24 +24 комфорт 1009.1 1008.0
19 12.02 СВ 2
{6}
н/о н/о +28.3 -21.0 3 +24 +24 комфорт 1009.0 1007.9
20 12.02 СВ 3
{5}
н/о н/о +27.2 +7.3 28 +27 +27 жарко 1009.8 1008.7
21 12.02 СВ 3
{7}
н/о н/о +26.6 -21.7 3 +22 +22 комфорт 1009.4 1008.3
22 12.02 В 2
{6}
н/о н/о +26.3 +21.1 73 +33 +33 очень
душно
1010.6 1009.5
23 12.02 В 2
{4}
н/о н/о +27.0 +17.4 56 +31 +31 душно 1011.4 1010.3
00 13.02 В 1
{4}
н/о н/о +27.2 +9.5 33 +28 +28 жарко 1011.9 1010.8
01 13.02 В 2
{3}
н/о н/о +27.7 -4.6 12 +25 +25 комфорт 1012.5 1011.4
02 13.02 В 1
{3}
н/о н/о +27.8 -12.9 6 +24 +24 комфорт 1012.4 1011.3
03 13.02 В 1
{3}
н/о н/о +27.8 -0.7 16 +25 +25 комфорт 1011.9 1010.8
04 13.02 В 1
{3}
н/о н/о +27.8 +8.9 30 +28 +28 жарко 1011.5 1010.4
05 13.02 СВ 2
{4}
н/о н/о +27.7 +11.4 36 +29 +29 жарко 1010.7 1009.6
06 13.02 СВ 2
{4}
н/о н/о +27.8 +12.9 40 +29 +29 жарко 1010.0 1008.9
07 13.02 СВ 2
{4}
н/о н/о +27.3 +16.9 53 +31 +31 душно 1009.6 1008.5
08 13.02 СВ 2
{3}
н/о н/о +27.4 +13.2 42 +29 +29 жарко 1009.3 1008.2
09 13.02 СВ 2
{3}
н/о н/о +27.4 +21.6 71 +35 +35 очень
душно
1010.5 1009.4
10 13.02 СВ 2
{4}
н/о н/о +27.8 +9.7 32 +28 +28 жарко 1011.0 1009.9
11 13.02 СВ 2
{4}
н/о н/о +28.8 +7.6 26 +28 +28 жарко 1012.4 1011.3
12 13.02 СВ 2
{4}
н/о н/о +29.3 -20.4 3 +25 +25 комфорт 1013.0 1011.9
13 13.02 СВ 2
{4}
н/о н/о +29.9 -20.0 3 +25 +25 комфорт 1013.2 1012.1
14 13.02 СВ 2
{3}
н/о н/о +29.6 -20.2 3 +25 +25 комфорт 1012.8 1011.7
15 13.02 СВ 2
{4}
н/о н/о +29.7 -20.1 3 +25 +25 комфорт 1012.3 1011.2
16 13.02 СВ 2
{4}
н/о н/о +28.8 -20.7 3 +24 +24 комфорт 1011.5 1010.4
17 13.02 СВ 2
{4}
н/о н/о +29.1 -20.5 3 +25 +25 комфорт 1010.9 1009.8
18 13.02 СВ 2
{5}
н/о н/о +28.9 -20.7 3 +24 +24 комфорт 1010.3 1009.2
19 13.02 СВ 2
{4}
н/о н/о +28.9 -20.7 3 +24 +24 комфорт 1009.6 1008.5
20 13.02 СВ 2
{4}
н/о н/о +28.3 -21.1 3 +24 +24 комфорт 1009.9 1008.8
21 13.02 СВ 2
{4}
н/о н/о +28.1 -21.2 3 +24 +24 комфорт 1010.8 1009.7
22 13.02 С 1
{3}
н/о н/о +27.8 -6.2 10 +25 +25 комфорт 1011.2 1010.1
23 13.02 СВ 2
{3}
н/о н/о +27.8 +7.0 27 +27 +27 жарко 1011.4 1010.3
00 14.02 СВ 2
{4}
н/о н/о +27.6 +11.4 36 +28 +28 жарко 1012.5 1011.4
01 14.02 СВ 2
{3}
н/о н/о +27.8 +15.9 48 +31 +31 душно 1012.6 1011.5
02 14.02 СВ 2
{4}
н/о н/о +27.8 +12.9 40 +29 +29 жарко 1012.1 1011.0
03 14.02 СВ 2
{5}
н/о н/о +27.7 +17.9 55 +32 +32 очень
душно
1012.0 1010.9
04 14.02 СВ 2
{5}
н/о н/о +27.5 +15.8 49 +31 +31 душно 1011.4 1010.3
05 14.02 СВ 2
{4}
н/о н/о +27.6 +18.6 58 +33 +33 очень
душно
1011.0 1009.9
06 14.02 СВ 2
{4}
н/о н/о +27.4 +23.6 80 +37 +37 очень
душно
1010.8 1009.7
07 14.02 СВ 2
{4}
н/о н/о +27.3 +24.4 84 +38 +38 очень
душно
1010.3 1009.2
09 14.02 СВ 2
{5}
н/о н/о +26.0 +22 +22 комфорт 1010.7 1009.6
10 14.02 Ю 2
{5}
н/о н/о +24.9 +21 +21 комфорт 1011.2 1010.1
11 14.02 ЮВ 2
{5}
н/о н/о +24.2 +20 +20 1013.3 1012.2
12 14.02 ЮВ 2
{6}
н/о н/о +23.2 +19 +19 1014.3 1013.1
13 14.02 В 2
{4}
н/о н/о +23.9 +20 +20 1014.7 1013.5
14 14.02 В 2
{4}
н/о н/о +24.2 +20 +20 1013.8 1012.7
15 14.02 В 3
{6}
н/о н/о +24.7 +21 +21 комфорт 1013.0 1011.9
16 14.02 В 1
{5}
н/о н/о +24.8 +21 +21 комфорт 1013.3 1012.2
17 14.02 ЮВ 1
{3}
н/о н/о +24.7 +21 +21 комфорт 1011.4 1010.3
18 14.02 В 1
{2}
н/о н/о +25.2 +21 +21 комфорт 1010.7 1009.6
19 14.02 Ю 1
{2}
н/о н/о +25.2 +21 +21 комфорт 1009.9 1008.8
20 14.02 ЮЗ 1
{1}
н/о н/о +25.4 +21 +21 комфорт 1009.8 1008.7
21 14.02 штиль 0
{1}
н/о н/о +25.3 +21 +21 комфорт 1010.4 1009.3
22 14.02 штиль 0
{1}
н/о н/о +25.2 +21 +21 комфорт 1011.6 1010.5
23 14.02 ЮЗ 1
{1}
н/о н/о +25.5 +21 +21 комфорт 1012.6 1011.5
00 15.02 Ю 1
{2}
н/о н/о +25.4 +21 +21 комфорт 1012.8 1011.7
01 15.02 Ю 1
{2}
н/о н/о +25.5 -22.9 3 +22 +22 комфорт 1013.4 1012.3
03 15.02 Ю 1
{3}
н/о н/о +25.0 -23.3 3 +21 +21 комфорт 1012.4 1011.3
04 15.02 Ю 1
{3}
н/о н/о +25.0 -23.3 3 +21 +21 комфорт 1012.0 1010.9
05 15.02 ЮЗ 1
{2}
н/о н/о +25.1 -23.2 3 +21 +21 комфорт 1011.3 1010.2
07 15.02 В 1
{3}
н/о н/о +24.1 -23.8 3 +21 +21 комфорт 1011.7 1010.6
08 15.02 В 1
{2}
н/о н/о +24.7 -23.5 3 +21 +21 комфорт 1012.0 1010.9
09 15.02 СВ 3
{6}
н/о н/о +22.1 -25.2 3 +19 +19 1013.0 1011.8
10 15.02 СВ 2
{6}
н/о н/о +23.7 -24.1 3 +20 +20 1012.3 1011.2
11 15.02 В 1
{3}
н/о н/о +24.3 -23.7 3 +21 +21 комфорт 1013.1 1012.0
12 15.02 СВ 1
{2}
н/о н/о +25.9 -22.7 3 +22 +22 комфорт 1013.3 1012.2
13 15.02 СВ 1
{2}
н/о н/о +26.5 -22.3 3 +22 +22 комфорт 1013.6 1012.5
14 15.02 С 1
{2}
н/о н/о +27.3 -21.7 3 +23 +23 комфорт 1013.5 1012.4
15 15.02 С 1
{2}
н/о н/о +29.0 -20.6 3 +24 +24 комфорт 1012.8 1011.7
16 15.02 СВ 1
{3}
н/о н/о +28.5 -20.9 3 +24 +24 комфорт 1011.7 1010.6
17 15.02 СВ 2
{3}
н/о н/о +29.5 -20.2 3 +25 +25 комфорт 1010.6 1009.5
18 15.02 СВ 2
{4}
н/о н/о +29.3 +24 +24 комфорт 1009.7 1008.6
19 15.02 С 2
{4}
н/о н/о +29.0 +24 +24 комфорт 1009.4 1008.3
20 15.02 С 1
{4}
н/о н/о +28.1 +23 +23 комфорт 1009.8 1008.7
21 15.02 С 1
{3}
н/о н/о +27.5 +23 +23 комфорт 1010.1 1009.0
22 15.02 С 2
{3}
н/о н/о +27.6 +23 +23 комфорт 1010.7 1009.6
23 15.02 С 2 н/о н/о +27.5 +23 +23 комфорт 1011.3 1010.2
01 16.02 С 2
{3}
н/о н/о +27.5 +23 +23 комфорт 1012.9 1011.8
02 16.02 С 2
{4}
н/о н/о +27.3 +23 +23 комфорт 1012.6 1011.5
03 16.02 СВ 2
{3}
н/о н/о +27.4 +23 +23 комфорт 1012.0 1010.9
04 16.02 СВ 2
{3}
н/о н/о +27.4 +23 +23 комфорт 1011.2 1010.1
05 16.02 С 2
{3}
н/о н/о +27.4 +23 +23 комфорт 1010.7 1009.6
06 16.02 С 2
{4}
н/о н/о +27.3 +23 +23 комфорт 1010.2 1009.1
07 16.02 СВ 2
{4}
н/о н/о +27.4 +25.4 89 +40 +40 очень
душно
1010.3 1009.2
08 16.02 С 2
{3}
н/о н/о +27.4 +27.2 99 +43 +43 опасность
перегрева
1010.6 1009.5
09 16.02 С 1
{3}
н/о н/о +27.3 +23 +23 комфорт 1011.0 1009.9
10 16.02 СВ 2
{4}
н/о н/о +27.5 +26.8 96 +43 +43 опасность
перегрева
1011.6 1010.5
11 16.02 С 2
{4}
н/о н/о +28.6 +20.6 62 +35 +35 очень
душно
1011.9 1010.8
12 16.02 СВ 2
{4}
н/о н/о +28.6 +13.1 38 +30 +30 жарко 1012.7 1011.6
13 16.02 С 2
{4}
н/о н/о +29.1 +7.5 26 +28 +28 жарко 1012.8 1011.7
14 16.02 С 2
{4}
н/о н/о +29.6 -11.2 6 +25 +25 комфорт 1012.5 1011.4
15 16.02 С 2
{5}
н/о н/о +27.8 +19.4 60 +33 +33 очень
душно
1012.0 1010.9
16 16.02 СВ 3
{4}
н/о н/о +29.3 +4.8 21 +28 +28 жарко 1011.1 1010.0
17 16.02 В 2
{6}
н/о н/о +25.7 -2.0 16 +24 +24 комфорт 1011.3 1010.2
18 16.02 ЮВ 2
{6}
н/о н/о +24.7 +21 +21 комфорт 1010.4 1009.3
19 16.02 В 3
{6}
н/о н/о +24.2 +20 +20 1009.9 1008.8
20 16.02 В 1
{6}
н/о н/о +25.2 +21 +21 комфорт 1009.7 1008.6
21 16.02 В 1
{3}
н/о н/о +25.1 +21 +21 комфорт 1009.8 1008.7
22 16.02 СВ 1
{4}
н/о н/о +25.2 +21 +21 комфорт 1010.5 1009.4
23 16.02 В 1
{3}
н/о н/о +25.5 +21 +21 комфорт 1011.1 1010.0
00 17.02 СВ 1
{3}
н/о н/о +25.7 +21 +21 комфорт 1011.7 1010.6
01 17.02 В 1
{3}
н/о н/о +26.0 +22 +22 комфорт 1011.8 1010.7
02 17.02 В 1
{3}
н/о н/о +26.3 +22 +22 комфорт 1012.0 1010.9
03 17.02 СВ 1
{2}
н/о н/о +26.3 +22 +22 комфорт 1011.6 1010.5
04 17.02 штиль 0
{2}
н/о н/о +25.6 +21 +21 комфорт 1010.9 1009.8
05 17.02 штиль 0
{1}
н/о н/о +25.4 +21 +21 комфорт 1009.8 1008.7
06 17.02 СЗ 1
{1}
н/о н/о +25.6 +21 +21 комфорт 1009.4 1008.3
07 17.02
{3}
н/о н/о +25.6 1009.4 1008.3
08 17.02 СВ 1
{4}
н/о н/о +25.2 +21 +21 комфорт 1009.8 1008.7
09 17.02 ЮЗ 1
{1}
н/о н/о +25.3 +21 +21 комфорт 1010.1 1009.0
10 17.02 З 1
{2}
н/о н/о +25.3 +21 +21 комфорт 1011.2 1010.1
11 17.02 В 1
{3}
н/о н/о +25.3 +21 +21 комфорт 1012.4 1011.3
12 17.02 ЮВ 2
{3}
н/о н/о +25.2 +21 +21 комфорт 1013.2 1012.1
13 17.02 Ю 1
{3}
н/о н/о +25.2 +21 +21 комфорт 1013.2 1012.1
14 17.02 Ю 1
{3}
н/о н/о +25.7 -22.8 3 +22 +22 комфорт 1013.7 1012.6
15 17.02 Ю 1
{2}
н/о н/о +26.7 -22.1 3 +23 +23 комфорт 1013.1 1012.0
16 17.02 Ю 1
{2}
н/о н/о +27.1 -21.9 3 +23 +23 комфорт 1012.3 1011.2
17 17.02 ЮВ 1
{2}
н/о н/о +27.5 -21.6 3 +23 +23 комфорт 1011.4 1010.3 0.2
18 17.02 ЮВ 2
{4}
н/о н/о +26.6 -22.2 3 +22 +22 комфорт 1010.0 1008.9
19 17.02 ЮВ 2
{3}
н/о н/о +26.1 -22.5 3 +22 +22 комфорт 1009.7 1008.6
20 17.02 ЮВ 1
{3}
н/о н/о +25.6 -22.8 3 +22 +22 комфорт 1009.8 1008.7
21 17.02 ЮВ 2
{4}
н/о н/о +25.1 -23.2 3 +21 +21 комфорт 1010.4 1009.3

 

Местоположение метеостанции Сантана (Амапа, Бразилия): широта -2.27 долгота -43.62 высота над уровнем моря 10 м.

В архиве по умолчанию представлена погода в Сантане за последнюю неделю. Архивные данные за месяц целиком и за предыдущие месяцы, начиная с января 2011 года, Вы можете получить, выбрав интересующий диапазон дат из раскрывающегося списка и нажав кнопку "Ввод!".


*Определитесь, кто Вы:
робот инопланетянин человек

Внимание! Время в таблицах - всемирное. Для получения местного времени необходимо прибавить поправку, которая равна -3 ч.

Смотрите также архив погоды в соседних городах и на ближайших метеорологических станциях:

Погода на Прегуике (Мараньян, Бразилия) (38 км)
Погода в Сан-Луисе (Мараньян, Бразилия) (73 км)
Погода в Сан-Луисе (Мараньян, Бразилия) (77 км)
Погода в Шападинье (Мараньян, Бразилия) (167 км)
Погода в Туриасу (Мараньян, Бразилия) (206 км)
Погода в Туриасу (Мараньян, Бразилия) (207 км)
Погода в Парнаибе (Пиауи, Бразилия) (223 км)
Погода в Парнаибе (Пиауи, Бразилия) (223 км)
Погода в Эсперантине (Пиауи, Бразилия) (235 км)
Погода в Бакабале (Мараньян, Бразилия) (255 км)

Пояснения к столбцам:

Ветер - указаны скорость ветра в м/с - средняя за 10 мин, порывы в срок и между сроками (в фигурных скобках) и направление, откуда дует ветер: С - северный, СВ - северо-восточный, В - восточный, ЮВ - юго-восточный, Ю - южный, ЮЗ - юго-западный, З - западный, СЗ - северо-западный.
Видимость - горизонтальная дальность видимости в метрах или километрах. При видимости от 1 до 10 км при отсутствии осадков обычно наблюдается дымка, при ухудшении видимости до 1 км и менее - туман. В сухую погоду видимость может ухудшаться дымом, пылью или мглою.
Явления - указаны атмосферные явления, наблюдавшиеся в срок или в последний час перед сроком; фигурными скобками обозначены явления, наблюдавшиеся между сроками (за 1-3 часа до срока); квадратными скобками обозначены град или гололедные отложения с указанием их диаметра в мм.
Облачность - указаны через наклонную черту общая и нижняя облачность в баллах и высота нижней границы облаков в метрах; квадратными скобками обозначены формы облаков: Ci - перистые, Cs - перисто-слоистые, Cc - перисто-кучевые, Ac - высококучевые, As - высокослоистые, Sc - слоисто-кучевые, Ns - слоисто-дождевые, Cu - кучевые, Cb - кучево-дождевые. Подробнее классификацию облаков см. в Атласе облаков (PDF).
T - Температура воздуха - температура, измеренная на высоте 2 м над землей.
Td - Температура точки росы - температура, при понижении до которой содержащийся в воздухе водяной пар достигнет насыщения.
f - Относительная влажность воздуха - влажноcть воздуха, измеренная на высоте 2 м над землей.
Te - Эффективная температура - температура, которую ощущает одетый по сезону человек в тени. Характеристика душности погоды. При расчете учитывается влияние влажности воздуха и скорости ветра на теплоощущения человека.
Tes - Эффективная температура на солнце - температура, которую ощущает человек, с поправкой на солнечный нагрев. Характеристика знойности погоды. Зависит от высоты солнца над горизонтом, облачности и скорости ветра. Ночью, в пасмурную погоду, а также при ветре 12 м/с и более поправка равна нулю.
P - Атмосферное давление - приведенное к уровню моря атмосферное давление.
Po - Атмосферное давление - измеренное на уровне метеостанции атмосферное давление.
Tmin - Минимальная температура - минимум температуры воздуха на высоте 2 м над землей.
Tmax - Максимальная температура - максимум температуры воздуха на высоте 2 м над землей.
R - Количество осадков - Количество выпавших осадков за период времени, мм. При наведении курсора мыши на число - период времени, за который выпало указанное количество осадков.
R24 - Количество осадков - Количество выпавших осадков за 24 часа, мм.
S - Снежный покров - Высота снежного покрова, см. При наведении курсора мыши на число - состояние снежного покрова и степень покрытия местности в баллах.